Wind_Speed
6 5 3 5 6 7 8 12 19 20 17 11 13 18 19 10 13 14 16 20 22 22 19 26 32 32 35 33 37 38 37 31 30 28 26 25 28 32 37 42 49 50 50 49
5 6 2 4 4 6 11 16 19 12 5 13 19 17 6 12 14 14 14 23 25 27 24 30 38 41 38 32 35 37 33 33 33 30 28 28 32 30 34 40 45 45 50 52
4 4 4 2 7 8 13 10 11 14 18 17 15 11 3 13 10 16 15 21 26 30 32 35 38 42 35 31 35 37 36 34 31 36 35 33 40 33 29 34 41 44 46 53
7 2 1 5 6 3 10 7 11 18 19 15 16 9 5 13 6 13 17 23 28 34 39 39 43 42 40 36 42 38 35 33 34 32 37 36 30 36 37 36 41 44 46 51
2 2 3 4 4 2 4 11 13 20 22 14 3 6 3 11 8 15 20 24 30 40 44 43 42 46 46 39 47 43 38 34 38 33 29 34 38 34 40 35 34 45 46 52
2 1 2 1 2 3 8 9 21 9 5 5 9 5 8 6 4 11 20 29 39 46 44 44 47 49 46 43 50 46 41 39 37 36 33 32 38 39 38 38 30 34 50 50
1 1 1 2 2 2 8 10 7 5 3 6 8 10 8 8 7 12 20 33 42 43 40 47 48 48 49 50 53 48 43 45 40 39 36 34 34 39 38 35 30 34 36 47
4 4 3 2 0 1 2 2 3 7 6 16 15 7 3 9 9 17 25 35 38 39 46 48 49 50 49 52 50 51 46 48 44 41 42 35 33 39 42 33 25 31 43 45
5 5 2 3 1 1 5 5 3 4 2 6 6 5 10 7 14 20 30 37 36 43 48 51 54 52 52 53 51 53 52 51 46 42 44 41 33 34 42 36 31 29 30 40
3 4 3 5 1 6 3 4 2 2 4 7 10 19 8 14 16 25 32 37 42 48 52 55 61 58 57 54 54 52 51 49 46 43 42 44 38 34 38 38 35 34 29 32
5 4 4 1 9 7 4 4 2 0 4 4 7 9 6 13 12 27 33 39 43 50 52 55 57 56 53 50 43 38 36 38 39 41 41 42 41 36 41 40 35 37 33 29
6 4 4 4 8 8 9 8 7 4 5 8 8 14 12 4 25 31 35 39 45 53 54 56 53 50 49 54 56 52 50 52 49 41 32 41 43 38 34 35 36 36 38 35
8 4 2 2 2 3 7 8 6 6 5 14 6 8 8 24 28 35 36 43 47 53 55 57 54 56 55 52 50 47 45 43 43 50 48 37 30 31 32 35 35 39 40 36
5 5 10 11 8 2 5 11 13 14 7 8 18 26 28 22 24 32 41 44 49 50 50 55 57 56 52 51 48 45 45 42 43 43 45 47 41 35 39 37 36 41 41 43
4 6 8 13 15 12 16 18 17 20 20 12 18 20 24 22 21 34 41 44 44 46 56 57 59 58 55 52 49 46 49 49 46 45 46 47 47 45 36 32 34 42 42 44
6 3 1 4 12 14 17 18 19 17 19 22 22 28 19 27 27 33 41 41 39 46 54 59 61 58 55 55 53 55 51 52 47 50 48 48 49 50 50 46 50 49 44 44
8 5 3 7 2 5 12 21 21 11 9 15 15 19 17 21 23 27 39 36 39 44 49 54 60 57 57 56 53 52 54 54 52 49 43 45 43 42 42 43 36 38 42 40
10 7 2 4 0 7 2 7 1 12 12 14 16 17 17 25 32 29 26 32 39 41 48 54 56 59 60 56 55 50 51 51 50 44 43 40 39 39 38 35 27 34 38 34
7 6 4 4 4 9 9 6 6 5 8 14 11 13 23 24 31 28 28 30 34 42 45 48 52 54 58 54 52 53 50 50 47 44 39 38 36 38 34 38 32 28 33 29
10 10 6 3 4 5 1 7 7 0 8 13 9 14 18 21 15 18 39 40 42 47 53 53 56 57 53 53 51 49 50 49 46 43 44 35 38 34 35 35 35 34 30 29
6 6 14 10 7 8 12 10 5 1 1 8 11 12 13 9 14 31 32 39 37 37 47 53 58 52 53 52 49 50 50 47 48 46 43 39 27 35 27 29 33 34 30 28
9 9 6 8 6 12 14 8 8 2 11 12 11 11 13 19 25 28 29 32 37 42 49 50 58 58 55 50 50 52 49 51 50 48 42 34 26 21 23 24 22 22 25 27
7 8 7 11 8 4 21 9 13 10 10 9 13 17 18 24 23 25 30 34 38 41 46 48 57 58 57 54 52 52 54 52 51 45 39 32 21 14 14 16 19 19 23 22
9 9 5 6 11 17 14 25 15 17 15 14 16 17 18 21 25 30 30 34 37 42 48 50 55 58 58 60 58 53 54 51 48 46 40 32 23 14 10 13 16 18 21 23
5 11 10 9 14 13 20 21 19 18 15 16 16 16 18 19 23 26 31 33 34 38 45 49 49 55 55 58 59 58 54 51 51 47 41 30 23 19 16 16 18 21 25 24
10 8 7 7 14 13 11 10 12 16 17 16 14 15 15 18 21 24 28 30 33 38 41 46 48 51 54 55 57 58 54 51 51 49 44 35 28 20 15 16 22 22 23 22
Wind_Direction
13 325 334 13 332 287 296 297 304 311 329 339 325 317 331 82 86 70 49 28 11 3 357 354 354 351 348 351 354 352 344 340 337 331 327 320 298 272 256 254 248 246 233 231
314 288 35 305 296 305 309 305 308 307 323 334 318 322 74 110 79 57 45 16 11 3 351 350 350 347 345 344 349 350 344 339 337 332 315 313 316 287 269 261 246 248 246 233
259 309 358 326 303 320 310 309 317 304 317 296 331 300 111 125 73 41 33 13 8 4 352 344 345 345 340 337 340 340 336 331 330 333 327 292 287 305 283 258 246 250 244 236
268 336 298 298 286 323 299 354 311 312 321 312 339 286 322 181 49 25 14 6 1 354 349 345 342 343 339 333 336 330 330 329 323 326 328 336 302 297 305 275 248 253 241 244
270 236 277 286 345 327 329 330 307 302 294 311 294 240 205 231 356 4 3 356 351 347 342 339 337 335 332 323 331 326 323 319 322 315 315 319 331 293 291 291 275 243 247 240
299 345 289 345 92 58 322 330 308 293 283 251 132 351 252 338 31 1 356 352 347 341 335 333 331 330 328 320 322 321 314 314 310 315 304 309 316 325 286 295 277 262 237 234
305 130 97 22 193 191 359 350 318 307 276 282 170 327 308 102 44 14 358 350 336 332 331 327 327 326 322 320 318 317 309 307 305 306 302 300 307 315 314 293 281 272 247 227
238 218 210 35 199 339 113 167 239 278 302 295 296 221 174 141 16 7 354 338 329 330 328 324 324 321 318 317 313 312 306 302 301 299 302 294 296 305 316 291 291 288 270 235
182 240 136 36 268 292 149 218 37 268 210 279 255 239 192 40 351 347 336 334 330 331 327 324 321 318 314 313 309 310 305 302 298 294 299 293 287 293 308 296 297 290 278 274
171 260 194 140 58 50 265 109 164 183 279 289 283 298 271 353 341 337 337 334 333 329 326 324 320 316 315 313 310 309 305 302 298 293 292 289 287 286 300 306 299 294 270 271
161 237 153 175 201 208 161 178 146 9 251 264 295 290 27 341 341 335 330 330 329 323 321 318 318 317 318 317 318 317 315 310 307 298 291 285 282 277 291 300 295 299 290 286
174 177 218 258 311 255 231 197 179 197 225 236 286 277 301 281 339 328 325 326 324 320 321 321 321 319 320 315 313 311 308 301 296 295 296 289 279 274 279 287 295 301 289 271
179 200 228 189 163 167 202 188 191 226 247 238 243 259 206 333 323 325 325 326 323 321 324 323 324 321 319 318 318 318 316 310 311 294 291 292 287 280 278 284 285 290 304 287
172 204 233 257 303 136 201 202 213 205 221 260 233 271 290 313 322 324 324 327 323 321 322 324 323 321 320 319 318 317 314 311 308 305 298 290 284 291 291 285 278 285 295 300
215 234 242 258 272 264 262 259 244 231 237 247 271 279 286 307 326 321 320 323 321 327 327 326 324 322 322 320 318 317 313 310 308 304 299 294 284 277 268 272 281 282 289 296
194 228 265 269 262 259 258 258 251 237 242 248 262 273 287 319 316 322 321 325 327 326 326 325 323 322 322 321 318 316 313 311 308 302 294 294 290 281 270 271 273 279 285 289
176 184 170 277 87 316 272 243 240 224 216 235 251 263 320 310 319 324 320 328 328 324 323 323 322 321 321 319 317 315 313 310 312 306 296 293 289 283 280 266 269 271 278 279
169 158 168 272 154 251 358 146 100 243 239 245 264 292 302 315 313 316 320 328 326 327 325 324 321 322 323 320 318 315 314 314 310 312 299 295 290 284 280 257 261 263 271 273
155 152 214 237 213 319 281 228 183 211 256 247 266 298 314 316 314 314 332 332 326 325 321 321 320 321 321 322 321 319 316 315 313 311 310 299 295 284 278 257 256 263 270 267
192 203 204 171 233 255 322 158 138 256 281 144 314 310 318 329 321 317 328 331 330 330 327 328 328 324 325 325 326 322 318 317 315 315 307 307 294 286 272 256 261 257 268 267
168 197 219 217 243 275 255 185 142 242 309 290 319 304 313 307 300 303 315 321 324 321 323 330 333 324 326 327 331 326 322 318 317 317 311 301 299 287 269 257 251 254 261 263
169 184 201 207 211 262 188 127 200 262 303 300 304 304 300 300 309 313 317 321 324 327 334 339 339 333 335 333 335 331 325 324 321 317 317 310 295 285 276 260 255 255 256 265
199 211 178 196 205 239 188 209 212 267 275 270 287 300 309 312 311 315 321 327 328 332 335 340 344 340 345 344 339 335 333 329 332 331 329 324 312 287 280 260 251 256 260 270
229 194 225 173 232 236 223 234 264 272 272 267 288 299 311 308 316 322 327 330 331 336 341 345 347 346 343 352 350 347 339 344 344 338 336 330 319 285 247 258 254 259 260 264
184 156 221 246 258 254 250 253 257 262 249 268 284 302 308 312 320 325 329 332 332 334 346 349 348 349 347 353 359 358 356 358 352 343 342 341 327 299 265 248 258 258 262 258
182 199 198 231 234 232 249 240 232 233 243 263 278 298 309 317 324 329 332 335 337 340 347 351 353 353 357 359 1 3 5 6 2 354 354 -0 0 337 293 261 265 262 269 270
Height
1523 1520 1518 1520 1521 1517 1517 1516 1508 1497 1498 1501 1505 1502 1499 1505 1509 1506 1506 1505 1502 1499 1497 1494 1490 1485 1479 1473 1465 1458 1450 1445 1437 1430 1424 1419 1414 1412 1411 1412 1414 1415 1417 1420
1522 1518 1523 1524 1522 1521 1516 1512 1502 1500 1502 1503 1496 1497 1497 1504 1507 1507 1507 1507 1503 1498 1496 1492 1486 1481 1474 1468 1462 1456 1451 1444 1436 1427 1420 1416 1410 1404 1402 1402 1404 1406 1408 1410
1525 1520 1524 1523 1518 1518 1511 1515 1513 1511 1502 1500 1493 1486 1490 1505 1505 1505 1504 1504 1501 1497 1493 1488 1484 1479 1472 1467 1461 1455 1448 1442 1434 1425 1415 1406 1404 1400 1395 1392 1393 1395 1397 1398
1526 1524 1524 1522 1518 1521 1516 1523 1518 1511 1506 1495 1501 1494 1485 1500 1496 1501 1499 1499 1496 1493 1490 1486 1480 1475 1470 1463 1457 1451 1445 1436 1429 1420 1412 1407 1400 1396 1389 1385 1379 1383 1387 1388
1519 1523 1523 1522 1524 1524 1519 1523 1518 1511 1502 1502 1490 1498 1481 1481 1487 1498 1499 1498 1497 1494 1490 1485 1478 1473 1467 1459 1452 1446 1439 1432 1424 1417 1411 1402 1395 1390 1385 1378 1374 1372 1376 1378
1523 1526 1526 1523 1525 1526 1526 1519 1508 1504 1505 1494 1496 1503 1476 1483 1502 1500 1498 1496 1493 1489 1485 1481 1474 1467 1461 1454 1445 1439 1431 1425 1419 1411 1404 1397 1388 1382 1377 1373 1368 1362 1363 1368
1523 1526 1527 1526 1523 1523 1519 1518 1511 1504 1492 1483 1493 1497 1483 1498 1501 1501 1497 1493 1492 1488 1481 1476 1469 1461 1451 1443 1435 1430 1423 1414 1410 1403 1396 1389 1382 1376 1370 1367 1362 1359 1352 1352
1520 1518 1526 1528 1524 1521 1524 1523 1527 1532 1509 1489 1497 1496 1481 1493 1496 1496 1494 1496 1493 1485 1479 1470 1462 1454 1444 1435 1428 1419 1413 1402 1399 1393 1385 1380 1375 1368 1363 1359 1352 1350 1347 1344
1520 1523 1528 1529 1528 1527 1527 1525 1533 1532 1545 1534 1487 1483 1482 1486 1488 1491 1492 1490 1484 1479 1471 1462 1453 1444 1433 1423 1416 1409 1399 1391 1385 1382 1375 1369 1367 1361 1357 1350 1344 1341 1338 1338
1524 1520 1527 1531 1531 1532 1527 1531 1535 1536 1539 1525 1477 1478 1474 1485 1488 1484 1481 1479 1474 1467 1459 1451 1439 1431 1420 1414 1404 1397 1389 1380 1373 1369 1365 1358 1354 1350 1344 1339 1336 1333 1331 1331
1525 1524 1525 1529 1522 1515 1530 1528 1532 1534 1536 1531 1514 1469 1479 1489 1490 1485 1481 1477 1472 1465 1457 1447 1434 1422 1414 1403 1395 1385 1377 1369 1362 1359 1354 1348 1344 1342 1335 1332 1330 1325 1323 1322
1525 1523 1524 1518 1525 1525 1521 1520 1524 1528 1531 1527 1524 1489 1482 1486 1487 1486 1480 1476 1470 1461 1450 1438 1426 1414 1405 1395 1384 1375 1366 1358 1350 1344 1339 1338 1333 1331 1328 1322 1318 1315 1314 1314
1524 1523 1519 1529 1527 1523 1519 1521 1519 1522 1529 1529 1526 1480 1475 1480 1484 1481 1478 1471 1462 1451 1439 1428 1416 1406 1393 1383 1373 1363 1356 1348 1340 1332 1327 1322 1320 1320 1317 1314 1310 1308 1305 1305
1521 1519 1510 1495 1492 1509 1518 1517 1518 1520 1523 1507 1497 1478 1469 1479 1480 1477 1470 1464 1456 1445 1437 1425 1409 1397 1385 1375 1364 1354 1344 1339 1331 1324 1315 1310 1308 1308 1305 1304 1302 1297 1295 1292
1518 1514 1512 1509 1508 1510 1508 1507 1507 1512 1509 1508 1478 1486 1479 1483 1482 1476 1468 1460 1450 1437 1426 1416 1401 1387 1376 1364 1354 1345 1335 1326 1321 1313 1305 1297 1294 1292 1292 1290 1290 1289 1286 1283
1516 1511 1516 1516 1509 1509 1504 1500 1495 1501 1502 1498 1494 1482 1481 1479 1479 1474 1463 1454 1445 1435 1422 1407 1394 1380 1367 1354 1343 1334 1324 1315 1309 1301 1293 1286 1279 1277 1277 1278 1278 1279 1276 1274
1514 1514 1522 1499 1515 1513 1500 1485 1481 1488 1486 1487 1487 1478 1478 1471 1471 1469 1455 1447 1443 1432 1419 1406 1388 1374 1360 1348 1338 1326 1314 1305 1296 1288 1283 1275 1269 1262 1261 1264 1266 1267 1268 1266
1504 1513 1518 1514 1523 1501 1473 1477 1481 1482 1480 1478 1477 1476 1477 1470 1463 1465 1457 1450 1437 1427 1413 1400 1385 1366 1353 1341 1330 1318 1306 1296 1286 1277 1272 1266 1260 1254 1251 1252 1254 1259 1259 1256
1500 1507 1513 1512 1510 1487 1475 1473 1475 1477 1476 1475 1476 1475 1472 1468 1459 1450 1452 1445 1435 1422 1413 1399 1382 1366 1347 1334 1321 1307 1296 1286 1277 1266 1261 1257 1251 1245 1242 1243 1245 1247 1247 1244
1498 1501 1507 1520 1503 1482 1466 1472 1475 1477 1469 1467 1470 1467 1464 1461 1448 1436 1435 1429 1420 1412 1403 1389 1372 1358 1343 1328 1315 1301 1289 1278 1268 1258 1249 1243 1242 1235 1231 1232 1235 1235 1237 1238
1497 1500 1495 1498 1495 1478 1465 1469 1473 1478 1460 1462 1462 1461 1459 1456 1455 1444 1437 1427 1421 1414 1400 1383 1368 1354 1339 1324 1309 1295 1283 1272 1261 1250 1240 1230 1226 1226 1223 1221 1224 1227 1230 1232
1481 1489 1489 1490 1494 1483 1458 1466 1465 1453 1453 1454 1456 1456 1454 1450 1444 1439 1432 1425 1415 1404 1389 1376 1363 1344 1333 1321 1306 1289 1278 1266 1254 1242 1230 1221 1214 1214 1215 1214 1215 1219 1222 1223
1471 1458 1466 1467 1460 1451 1452 1449 1450 1449 1450 1451 1450 1449 1446 1442 1438 1434 1426 1419 1409 1399 1387 1374 1360 1342 1327 1315 1304 1286 1271 1260 1244 1231 1222 1214 1209 1206 1206 1208 1211 1213 1216 1214
1454 1452 1454 1457 1447 1444 1446 1446 1446 1446 1446 1446 1446 1444 1441 1439 1434 1426 1419 1412 1404 1394 1381 1369 1356 1340 1322 1309 1297 1286 1270 1255 1241 1226 1217 1210 1205 1205 1206 1208 1207 1208 1208 1209
1441 1447 1444 1443 1441 1440 1440 1441 1442 1443 1442 1442 1441 1438 1436 1433 1430 1423 1415 1409 1402 1392 1379 1367 1355 1342 1322 1309 1294 1281 1267 1250 1238 1227 1215 1207 1203 1200 1200 1199 1200 1203 1204 1205
1433 1432 1436 1430 1430 1430 1430 1432 1436 1438 1438 1436 1435 1434 1432 1429 1424 1419 1413 1407 1398 1387 1376 1365 1354 1343 1324 1311 1295 1281 1267 1252 1239 1226 1215 1205 1196 1196 1195 1195 1197 1197 1197 1197